    Orbital elements:
    2016 VC1                                            PHA, Earth MOID = 0.0362 AU
    Epoch 2016 July 31.0 TT = JDT 2457600.5                 MPC
    M 316.13907              (2000.0)            P               Q
    n   0.28382029     Peri.  241.45231     -0.58251200     -0.78483354
    a   2.2931920      Node   245.73004     +0.80298869     -0.51530456
    e   0.6884334      Incl.   13.41266     +0.12605128     -0.34423469
    P   3.47           H   21.6           G   0.15           U   6
    Residuals in seconds of arc
    161102 D29  0.1+  0.3-    161104 658  0.3+  0.5+    161105 850  0.3-  0.3-
    161102 D29  0.2+  0.1-    161104 658  0.3+  0.4+    161105 I52  0.0   0.1+
    161102 D29  0.7+  0.1-    161104 J95  0.4-  0.5-    161105 I52  0.1+  0.1+
    161103 D29  0.4+  0.1+    161104 J95  0.4+  0.4+    161105 I52  0.1-  0.1-
    161103 D29  0.2-  0.2-    161104 J95  0.3+  0.3-    161105 300  0.1+  0.1+
    161103 D29  0.5-  0.3-    161104 L04  0.4-  0.1-    161105 300  0.1+  0.1-
    161103 106  0.3-  0.1+    161104 L04  0.1-  0.0     161105 300  1.0-  0.5+
    161103 106  0.9-  0.3+    161104 L04  0.0   0.1+    161105 300  0.3+  0.1-
    161103 106  0.1+  0.0     161105 J69  0.1-  0.1-    161105 I67  0.1+  0.6+
    161104 U69  0.3+  0.5+    161105 J69  0.7+  0.1-    161105 I67  0.3-  0.5+
    161104 U69  0.1+  0.2-    161105 J69  0.1+  0.3+    161105 I67  0.9+  0.7+
    161104 U69  0.0   0.2+    161105 U69  0.1-  0.1-    161105 J95  0.2+  0.1-
    161104 U69  0.2+  0.0     161105 850  0.0   0.1-    161105 J95  0.4+  0.2-
    161104 H36  0.2-  0.5-    161105 850  0.0   0.2-    161105 J95  0.2+  0.1-
    161104 H36  0.4-  0.3+    161105 U69  0.4+  0.4+    161106 H36  0.3-  0.7+
    161104 926  0.0   0.3+    161105 850  0.6+  0.1+    161106 H36  0.0   0.3+
    161104 H36  0.0   0.9+    161105 926  0.2-  0.2+    161106 H36  0.3+  0.1+
    161104 926  0.1+  0.0     161105 850  0.1-  0.1+    161106 B49  0.1+  0.2+
    161104 H21  0.2+  0.3+    161105 926  0.2+  0.4+    161106 B49  0.2+  0.0
    161104 H21  0.2-  0.1-    161105 U69  0.0   0.2+    161106 B49  0.3+  0.1+
    161104 926  0.1+  0.1+    161105 850  0.1-  0.1+    161106 C77  0.7-  0.4-
    161104 H21  0.1+  0.2+    161105 926  0.0   0.2+    161106 C77  0.4-  0.8+
    161104 658  0.0   0.6+    161105 850  0.3-  0.1-    161106 C77  0.0   0.5+
    
    Ephemeris:
    2016 VC1                 a,e,i = 2.29, 0.69, 13                  q = 0.7145
    Date    TT    R. A. (2000) Decl.     Delta      r     Elong.  Phase     V
    2016 10 07    02 05 53.5 +40 01 47   0.5350  1.4571   141.6    25.2    22.2
    ...
    2016 10 22    01 53 52.3 +43 35 49   0.3438  1.2981   147.4    24.4    21.0
    ...
    2016 10 30    01 37 21.2 +45 34 50   0.2517  1.2120   147.1    26.5    20.2
    ...
    2016 11 05    01 14 38.4 +47 08 45   0.1867  1.1474   143.8    30.7    19.6
    2016 11 06    01 09 18.7 +47 24 45   0.1762  1.1366   142.8    31.8    19.5
    2016 11 07    01 03 20.1 +47 40 43   0.1658  1.1259   141.8    33.0    19.3
    ...
    2016 11 13    00 04 03.0 +48 54 00   0.1058  1.0620   131.0    44.7    18.6
    ...
    2016 11 21    19 57 07.8 +28 47 25   0.04670 0.9789    77.6    99.7    18.5
    ...
    2016 12 06    15 40 01.1 -33 40 17   0.1572  0.8384    19.2   157.3    27.3
    
    A. U. Tomatic                (C) Copyright 2016 MPC           M.P.E.C. 2016-V47
    

    Read MPEC 2016-V46 Read MPEC 2016-V48


    MPEC number:

    Enter an MPEC number in one of the following forms:

    • 1997-B01 (the full form)
    • J97B01 (the packed version of the full form)
    • B01 (the abbreviated form)